Tracking 30703 objects as of 12-Jun-2025
HD Live streaming from Space Station
objects crossing your sky now

SL-14 DEB

Track SL-14 DEB now!
10-day predictions


NORAD ID: 45293
Int'l Code: 1991-056AF
Perigee: 712.9 km
Apogee: 954.1 km
Inclination: 82.5 °
Period: 101.4 minutes
Semi major axis: 7204 km
RCS: Unknown
Launch date: August 15, 1991
Source: Commonwealth of Independent States (former USSR) (CIS)
Launch site: PLESETSK MISSILE AND SPACE COMPLEX (PKMTR)

Note: This is SATELLITE DEBRIS
Your satellite tracking list
Your tracking list is empty




NASA's NSSDC Master Catalog

Two Line Element Set (TLE):
1 45293U 91056AF  25163.25685718  .00036644  00000-0  14993-1 0  9993
2 45293  82.5226 258.4008 0167415 150.1843 210.9008 14.19695752266297
Source of the keplerian elements: AFSPC